Other Public Products
Issued by NWS Grand Forks, ND

Home | Current Version | Previous Version | Text Only | Print | Product List | Glossary On
Versions: 1 2 3 4 5 6 7 8 9 10 11 12 13 14 15 16 17 18 19 20 21 22 23 24 25 26 27 28 29 30 31 32 33 34 35 36 37 38 39 40 41 42 43 44 45 46 47 48 49 50
000
FPUS83 KFGF 011131
OPUFGF
PRAIRIE TO PINES WEATHER ROUNDUP
NATIONAL WEATHER SERVICE EASTERN NORTH DAKOTA/GRAND FORKS ND
600 AM CDT WED JUL 01 2015

 **SATELLITE DATA USED TO AUGMENT SKY COVER AT AUTOMATED STATIONS**
 *****  WEATHER ACROSS EASTERN NORTH DAKOTA  *****

CITY           SKY/WX    TMP DP  RH WIND       PRES   REMARKS
GRAND FORKS    PTCLDY    58  54  86 CALM      29.92S
GRAND FORKS AF CLEAR     54  53  98 N3        29.93S FOG
GRAND CITY NWS   N/A     57 N/A N/A E3          N/A
BUXTON         NOT AVBL
DEVILS LAKE      N/A     55  52  88 E3        29.94S VSB 1/2
FARGO          FAIR      63  59  87 CALM      29.93R
WAHPETON ARPT  CLOUDY    63  59  88 E3        29.94R
$$

 *****  WEATHER ACROSS CENTRAL AND WESTERN NORTH DAKOTA  *****

CITY           SKY/WX    TMP DP  RH WIND       PRES   REMARKS
JAMESTOWN      CLOUDY    63  61  93 SE6       29.93R
BISMARCK       CLOUDY    63  61  93 NE5       29.92R FOG
MINOT          FOG       62  61  96 NW6       29.93R VSB 1/4
MINOT AFB      FOG       63  63 100 NW5       29.93R VSB 1/4
GARRISON         N/A     60  59  96 NE5       29.93S
WILLISTON      FOG       59  58  96 NE5       29.97R VSB 3/4
DICKINSON      CLOUDY    62  60  93 E5        29.93R FOG
HETTINGER      FOG       61  59  93 E5        29.92R VSB 1/4
$$

 *****  OTHER OBSERVATIONS NORTHEAST NORTH DAKOTA  *****

CITY           SKY/WX    TMP DP  RH WIND       PRES   REMARKS
WALHALLA       FAIR      54  54 100 MISG      29.95R
LANGDON        FAIR      52  52 100 CALM      29.96S FOG
CAVALIER       FAIR      55  55 100 CALM      29.94S FOG
GRAFTON        FAIR      55  55 100 CALM      29.95R
CANDO          FAIR      54  54 100 E5        29.95S FOG
FORT TOTTEN      N/A     58  56  94 E3        29.95
ROLLA          FOG       50  50 100 CALM      29.97R VSB<1/4
RUGBY          NOT AVBL
 ***** THE ABOVE OBSERVATIONS ARE NON NWS ARE NOT QUALITY
        CONTROLLED AND MAY MIS-REPORT RAIN FOR SNOW...
$$

 *****  OTHER OBSERVATIONS SOUTHEAST NORTH DAKOTA *****

CITY           SKY/WX    TMP DP  RH WIND       PRES   REMARKS
COOPERSTOWN    NOT AVBL
VALLEY CITY    CLOUDY    63  63 100 CALM      29.94R
OAKES            N/A     63  63 100 E3        29.93R
GWINNER        NOT AVBL
SHEYENNE NWR     N/A     62  61  95 E2        29.95S
BUFFALO        NOT AVBL
WYNDMERE       NOT AVBL
 ***** THE ABOVE OBSERVATIONS ARE NON NWS ARE NOT QUALITY
       CONTROLLED AND MAY MIS-REPORT RAIN FOR SNOW...
$$

  *****  WEATHER ACROSS NORTHERN MINNESOTA  *****

CITY           SKY/WX    TMP DP  RH WIND       PRES   REMARKS
FLAG ISLAND    CLEAR     63  55  77 CALM      29.95S
WARROAD        CLEAR     55  52  88 CALM      29.96S
ROSEAU         MOCLDY    55  52  88 CALM      29.96S
HALLOCK        CLEAR     54  54 100 SE3       29.94R
THF RVR FALLS  PTCLDY    55  52  88 CALM      29.95S
HALSTAD        NOT AVBL
FOSSTON        PTCLDY    54  48  82 CALM      29.96R
BAUDETTE       CLEAR     50  49  96 SE3       29.96S
WASKISH        CLEAR     54  52  94 E3        29.97S
CROOKSTON      CLEAR     57  54  88 E6        29.94S
$$
  *****  WEATHER ACROSS CENTRAL AND WEST MINNESOTA  *****

CITY           SKY/WX    TMP DP  RH WIND       PRES   REMARKS
BEMIDJI        MOCLDY    54  52  94 CALM      29.97R
PARK RAPIDS    PTCLDY    60  55  83 SE6       29.97R
WADENA           N/A     61  57  88 CALM      29.97R
DETROIT LAKES  PTCLDY    63  59  88 S5        29.96S
MOORHEAD       PTCLDY    63  61  94 CALM      29.95R
FERGUS FALLS   CLOUDY    63  63 100 S7        29.95S
ELBOW LAKE     RAIN      62  60  93 SE7       29.96S
MORRIS MN      LGT RAIN  63  61  94 SE9       29.94F
STAPLES        CLOUDY    61  55  82 SE5       29.98R
WHEATON        DRIZZLE   61  57  88 SE8       29.94S
$$
  *****  WEATHER ELSEWHERE ACROSS MINNESOTA  *****

CITY           SKY/WX    TMP DP  RH WIND       PRES   REMARKS
DULUTH         PTCLDY    49  46  90 CALM      30.01R
INTRNTL FALLS  CLEAR     44  42  93 CALM      29.97S
ELY            PTCLDY    45  43  93 CALM      30.01S
CLOQUET        PTCLDY    46  45  93 CALM      30.01S FOG
BRAINERD       MOCLDY    56  53  90 SE5       29.99R
HIBBING        PTCLDY    43  41  93 CALM      30.01R
ALEXANDRIA     RAIN      61  59  93 S5        29.99R
SAINT CLOUD    CLOUDY    59  53  80 E3        29.98R
MINNEAPOLIS    CLOUDY    59  49  69 E9        29.98R
$$

  *****  WEATHER ACROSS SOUTH DAKOTA  *****

CITY           SKY/WX    TMP DP  RH WIND       PRES   REMARKS
SIOUX FALLS    RAIN      63  61  93 E6        29.88F FOG
BROOKINGS      CLOUDY    63  57  82 NE6       29.92F
WATERTOWN      LGT RAIN  63  60  90 E5        29.91S FOG
HURON          RAIN      65  64  97 E7        29.87F FOG
SISSETON         N/A     63  62  97 S3        29.91S
ABERDEEN       CLOUDY    65  64  97 E3        29.89R FOG
MITCHELL       CLOUDY    66  65  96 E6        29.88R FOG
PIERRE         CLEAR     62  62 100 E7        29.85S FOG
MOBRIDGE       CLOUDY    66  64  93 SE5       29.86R
RAPID CITY     CLEAR     66  58  75 NW12      29.92S
$$

  *****  SOME WEATHER IN NEARBY STATES *****

CITY           SKY/WX    TMP DP  RH WIND       PRES   REMARKS
GLASGOW MT     NOT AVBL
GREAT FALLS MT CLEAR     55  51  86 W5        30.07R
CHEYENNE WY    CLEAR     62  52  69 W9        30.17R
SCOTTSBLUFF NE CLEAR     61  58  90 N6        30.01R
OMAHA NE       MOCLDY    68  65  90 SE12      29.82F
DES MOINES IA  MOCLDY    67  61  81 E7        29.89S
DAVENPORT IA   MOCLDY    60  58  92 NE8       29.93R
CHICAGO IL     MOCLDY    56  50  80 NE7       29.95R
EAU CLAIRE WI  CLEAR     47  45  93 CALM      30.00R
LA CROSSE WI   MOCLDY    54  51  90 MISG      29.97S
$$

  *****  SOME NATIONAL WEATHER *****

CITY           SKY/WX    TMP DP  RH WIND       PRES   REMARKS
LA GUARDIA NY  LGT RAIN  71  66  84 CALM      29.77R
RALEIGH NC     MOCLDY    70  66  88 SW6       29.95R FOG
ATLANTA GA     CLOUDY    72  66  83 SW8       30.05R
NEW ORLEANS LA MOCLDY    73  68  84 W5        30.07R
OKLAHOMA CITY  PTCLDY    72  69  90 SW7       29.92F
ALBUQUERQUE NM CLEAR     74  47  38 NE10      30.21R
SALT LAKE CITY PTCLDY    77  55  46 N8        30.05R
LOS ANGELES CA PTCLDY    67  64  90 E3        29.90R
BOISE ID       CLEAR     73  52  47 CALM      29.99R
SEATTLE WA     CLEAR     63  53  70 N6        30.05F
$$

*** WEATHER ACROSS MANITOBA...SASKATCHEWAN AND ONTARIO ***
                ***ONTARIO***

CITY           SKY/WX    TMP DP  RH WIND       PRES   REMARKS
GERALDTON      FOG       41  41 100 CALM      30.00R VSB 1/2
THUNDER BAY    PTCLDY    43  41  93 W3          N/A
SIOUX LOOKOUT  MOCLDY    57 N/A N/A SE2       29.97
TORONTO        PTSUNNY   63  59  88 SW9       29.72R
BIG TROUT LK   PTCLDY    55  45  67 S6        29.91S
PICKLE LAKE    PTCLDY    50  45  81 S5        29.94
DRYDEN         PTCLDY    55  52  88 S7        29.97S
KENORA         CLOUDY    59  57  94 S6        29.96S
$$
                *** MANITOBA***

CITY           SKY/WX    TMP DP  RH WIND       PRES   REMARKS
BRANDON        FOG       50  50 100 NE3       29.95S VSB 1/8
DAUPHIN        CLEAR     54  54 100 W6        29.93S FOG
ISLAND LAKE    CLOUDY    59  54  82 SW3       29.89S
PILOT MOUND      N/A     52  52 100 SE3         N/A
THE PAS        CLOUDY    59  59 100 S3        29.85F FOG
THOMPSON       FOG       48  46  93 W2        29.89S VSB 1/4
WINNIPEG       CLEAR     57  57 100 S3        29.94S
LYNN LAKE        N/A    N/A N/A N/A MISG        N/A
CHURCHILL      PTCLDY    50  46  87 S6        29.90S
$$
                ***SASKATCHEWAN***

CITY           SKY/WX    TMP DP  RH WIND       PRES   REMARKS
ESTEVAN        FOG       59  59 100 W2        29.97  VSB 1/2
KINDERSLEY     LGT RAIN  57  55  94 W5        30.00R VSB 1
LLOYDMINSTER   CLOUDY    63  57  82 W5        29.97S HAZE
PRINCE ALBERT  CLOUDY    55  55 100 NW3       29.90S
REGINA         FOG       50  50 100 S6        29.98  VSB 1/2
YORKTON        FOG       54  52  94 CALM      29.95  VSB 1/8


USA.gov is the U.S. government's official web portal to all federal, state and local government web resources and services.